Change the Weather History Date:

Tuesday, May 13, 2014

  Actual Average Record
Temperature  
Mean Temperature 66 °F 58 °F  
Max Temperature 78 °F 69 °F 88 °F (1982)
Min Temperature 54 °F 47 °F 31 °F (2013)
Degree Days  
Heating Degree Days 0 8  
Month to date heating degree days 106 121  
Since 1 July heating degree days 6934 6264  
Cooling Degree Days 1 1  
Month to date cooling degree days 11 7  
Year to date cooling degree days 11 11  
Growing Degree Days 14 (Base 50)    
Moisture  
Dew Point 62 °F    
Average Humidity 79    
Maximum Humidity 90    
Minimum Humidity 68    
Precipitation  
Precipitation 0.28 in 0.14 in 0.80 in (1978)
Month to date precipitation 0.63 1.62  
Year to date precipitation 6.43 10.19  
Sea Level Pressure  
Sea Level Pressure 29.95 in    
Wind  
Wind Speed 11 mph (SW)    
Max Wind Speed 21 mph    
Max Gust Speed 29 mph    
Visibility 10 miles    
Events Rain , Thunderstorm    
T = Trace of Precipitation, MM = Missing Value Source: NWS Daily Summary

Daily Weather History Graph

Daily Weather History Graph

Search for Another Location

Airport or City:

Trip Planner

Search our weather history database for the weather conditions in past years. The results will help you decide how hot, cold, wet, or windy it might be!

Date:

Astronomy

May. 13, 2014 Rise Set
Actual Time 6:23 AM EDT 8:54 PM EDT
Civil Twilight 5:51 AM EDT 9:26 PM EDT
Nautical Twilight 5:11 AM EDT 10:06 PM EDT
Astronomical Twilight 4:27 AM EDT 10:51 PM EDT
Moon 7:54 PM EDT (5/13) 5:41 AM EDT (5/13)
Length of Visible Light 15h 35m
Length of Day
14h 31m
Waxing Gibbous, 98% of the Moon is Illuminated
May 13
Waxing Gibbous
May 14
Full
May 21
Last Quarter
May 28
New
Jun 5
First Quarter

Hourly Weather History & Observations

Time (EDT) Temp. Dew Point Humidity Pressure Visibility Wind Dir Wind Speed Gust Speed Precip Events Conditions
12:53 AM 73.9 °F 66.9 °F 79% 29.92 in 10.0 mi SSW 12.7 mph - N/A   Clear
1:53 AM 73.0 °F 66.0 °F 79% 29.90 in 10.0 mi SSW 11.5 mph - N/A   Partly Cloudy
2:53 AM 73.0 °F 66.0 °F 79% 29.88 in 10.0 mi South 11.5 mph - N/A   Overcast
3:31 AM 72.0 °F 66.0 °F 81% 29.90 in 10.0 mi South 12.7 mph - N/A Thunderstorm Overcast
3:38 AM 71.1 °F 66.9 °F 87% 29.91 in 4.0 mi SSW 18.4 mph 27.6 mph 0.10 in Rain , Thunderstorm Heavy Thunderstorms and Rain
3:51 AM 71.6 °F 66.2 °F 83% 29.91 in 10.0 mi SSW 13.8 mph - 0.11 in Rain , Thunderstorm Light Thunderstorms and Rain
3:53 AM 71.1 °F 66.0 °F 84% 29.89 in 10.0 mi SW 16.1 mph - 0.11 in Rain , Thunderstorm Light Thunderstorms and Rain
3:58 AM 71.1 °F 66.0 °F 84% 29.90 in 10.0 mi SW 16.1 mph - 0.00 in   Overcast
4:23 AM 70.0 °F 66.9 °F 90% 29.89 in 10.0 mi South 6.9 mph - 0.01 in Rain Light Rain
4:53 AM 70.0 °F 66.9 °F 90% 29.86 in 10.0 mi SSE 5.8 mph - 0.01 in   Partly Cloudy
5:36 AM 70.0 °F 66.0 °F 87% 29.88 in 10.0 mi South 9.2 mph - N/A   Mostly Cloudy
5:53 AM 70.0 °F 66.0 °F 87% 29.88 in 10.0 mi South 12.7 mph - N/A   Mostly Cloudy
6:53 AM 69.1 °F 64.0 °F 84% 29.90 in 8.0 mi SW 10.4 mph - 0.06 in Rain Rain
7:53 AM 68.0 °F 64.0 °F 87% 29.91 in 10.0 mi South 5.8 mph - 0.01 in   Overcast
8:53 AM 71.6 °F 66.2 °F 83% 29.90 in 10.0 mi South 12.7 mph - N/A   Partly Cloudy
9:53 AM 72.0 °F 66.0 °F 81% 29.90 in 10.0 mi South 15.0 mph - N/A   Partly Cloudy
11:53 AM 75.2 °F 66.2 °F 73% 29.92 in 10.0 mi WSW 12.7 mph - N/A   Mostly Cloudy
12:53 PM 75.9 °F 66.0 °F 71% 29.90 in 10.0 mi WSW 11.5 mph - 0.08 in   Mostly Cloudy
1:53 PM 73.9 °F 63.0 °F 68% 29.91 in 10.0 mi SW 12.7 mph - 0.00 in   Overcast
2:53 PM 75.0 °F 64.0 °F 69% 29.91 in 10.0 mi SSW 9.2 mph 17.3 mph N/A   Mostly Cloudy
3:16 PM 69.1 °F 64.0 °F 84% 29.95 in 10.0 mi West 11.5 mph 24.2 mph 0.01 in Rain Light Rain
3:53 PM 66.0 °F 62.1 °F 87% 29.95 in 10.0 mi West 15.0 mph - 0.01 in Rain Light Rain
4:19 PM 64.0 °F 60.1 °F 87% 29.96 in 10.0 mi West 15.0 mph 24.2 mph 0.00 in   Overcast
4:53 PM 64.0 °F 59.0 °F 84% 29.97 in 10.0 mi WNW 12.7 mph - 0.00 in   Overcast
5:41 PM 61.0 °F 55.9 °F 83% 30.00 in 10.0 mi WNW 12.7 mph - N/A   Overcast
5:53 PM 62.1 °F 55.9 °F 80% 30.00 in 10.0 mi WNW 8.1 mph - N/A   Overcast
6:53 PM 60.1 °F 54.0 °F 80% 30.03 in 10.0 mi WNW 15.0 mph - N/A   Overcast
7:53 PM 57.0 °F 52.0 °F 83% 30.05 in 10.0 mi WNW 11.5 mph 19.6 mph 0.00 in   Overcast
8:53 PM 55.9 °F 50.0 °F 80% 30.06 in 10.0 mi WNW 10.4 mph - N/A   Overcast
9:53 PM 55.0 °F 50.0 °F 83% 30.09 in 10.0 mi West 8.1 mph - N/A   Overcast
10:53 PM 54.0 °F 48.9 °F 83% 30.11 in 10.0 mi WNW 6.9 mph - N/A   Overcast
11:53 PM 54.0 °F 48.9 °F 83% 30.12 in 10.0 mi WNW 10.4 mph - N/A   Overcast